Time,TemperatureF,DewpointF,PressureIn,WindDirection,WindDirectionDegrees,WindSpeedMPH,WindSpeedGustMPH,Humidity,HourlyPrecipIn,Conditions,Clouds,dailyrainin,SolarRadiationWatts/m^2,SoftwareType,DateUTC
2013-07-03 00:35:00,90.0,43.0,-100.00,West,272,15.0,24.0,20,0.00,,,0.00,0.000000,,2013-07-03 07:35:00,
2013-07-03 00:44:00,90.0,43.0,-100.00,West,272,15.0,24.0,20,0.00,,,0.00,0.000000,,2013-07-03 07:44:00,
2013-07-03 00:51:00,90.0,42.0,-100.00,West,269,9.0,21.0,19,0.00,,,0.00,0.000000,,2013-07-03 07:51:00,
2013-07-03 01:24:00,90.0,42.0,-100.00,West,269,9.0,21.0,19,0.00,,,0.00,0.000000,,2013-07-03 08:24:00,
2013-07-03 01:35:00,90.0,42.0,-100.00,West,269,9.0,21.0,19,0.00,,,0.00,0.000000,,2013-07-03 08:35:00,
2013-07-03 01:43:00,90.0,42.0,-100.00,West,269,9.0,21.0,19,0.00,,,0.00,0.000000,,2013-07-03 08:43:00,
2013-07-03 01:51:00,82.0,43.0,-100.00,NE,34,2.0,9.0,25,0.00,,,0.00,0.000000,,2013-07-03 08:51:00,
2013-07-03 02:24:00,82.0,43.0,-100.00,NE,34,2.0,9.0,25,0.00,,,0.00,0.000000,,2013-07-03 09:24:00,
2013-07-03 02:35:00,82.0,43.0,-100.00,NE,34,2.0,9.0,25,0.00,,,0.00,0.000000,,2013-07-03 09:35:00,
2013-07-03 02:44:00,82.0,43.0,-100.00,NE,34,2.0,9.0,25,0.00,,,0.00,0.000000,,2013-07-03 09:44:00,
2013-07-03 02:51:00,86.0,43.0,-100.00,WNW,292,8.0,15.0,22,0.00,,,0.00,0.000000,,2013-07-03 09:51:00,
2013-07-03 03:14:00,86.0,43.0,-100.00,WNW,292,8.0,15.0,22,0.00,,,0.00,0.000000,,2013-07-03 10:14:00,
2013-07-03 03:25:00,86.0,43.0,-100.00,WNW,292,8.0,15.0,22,0.00,,,0.00,0.000000,,2013-07-03 10:25:00,
2013-07-03 03:35:00,86.0,43.0,-100.00,WNW,292,8.0,15.0,22,0.00,,,0.00,0.000000,,2013-07-03 10:35:00,
2013-07-03 03:43:00,86.0,43.0,-100.00,WNW,292,8.0,15.0,22,0.00,,,0.00,0.000000,,2013-07-03 10:43:00,
2013-07-03 03:51:00,79.0,45.0,-100.00,SE,142,9.0,18.0,30,0.00,,,0.00,0.000000,,2013-07-03 10:51:00,
2013-07-03 04:23:00,79.0,45.0,-100.00,SE,142,9.0,18.0,30,0.00,,,0.00,0.000000,,2013-07-03 11:23:00,
2013-07-03 04:42:00,79.0,45.0,-100.00,SE,142,9.0,18.0,30,0.00,,,0.00,0.000000,,2013-07-03 11:42:00,
2013-07-03 04:51:00,78.0,43.0,-100.00,SW,228,3.0,11.0,29,0.00,,,0.00,0.000000,,2013-07-03 11:51:00,
2013-07-03 05:22:00,78.0,43.0,-100.00,SW,228,3.0,11.0,29,0.00,,,0.00,0.000000,,2013-07-03 12:22:00,
2013-07-03 05:35:00,78.0,43.0,-100.00,SW,228,3.0,11.0,29,0.00,,,0.00,0.000000,,2013-07-03 12:35:00,
2013-07-03 05:43:00,78.0,43.0,-100.00,SW,228,3.0,11.0,29,0.00,,,0.00,0.000000,,2013-07-03 12:43:00,
2013-07-03 05:51:00,85.0,43.0,-100.00,WNW,287,18.0,25.0,23,0.00,,,0.00,0.000000,,2013-07-03 12:51:00,
2013-07-03 06:24:00,85.0,43.0,-100.00,WNW,287,18.0,25.0,23,0.00,,,0.00,0.000000,,2013-07-03 13:24:00,
2013-07-03 06:35:00,85.0,43.0,-100.00,WNW,287,18.0,25.0,23,0.00,,,0.00,0.000000,,2013-07-03 13:35:00,
2013-07-03 06:45:00,85.0,43.0,-100.00,WNW,287,18.0,25.0,23,0.00,,,0.00,0.000000,,2013-07-03 13:45:00,
2013-07-03 06:51:00,81.0,44.0,-100.00,SE,137,2.0,25.0,27,0.00,,,0.00,44.000000,,2013-07-03 13:51:00,
2013-07-03 07:24:00,81.0,44.0,-100.00,SE,137,2.0,25.0,27,0.00,,,0.00,44.000000,,2013-07-03 14:24:00,
2013-07-03 07:34:00,81.0,44.0,-100.00,SE,137,2.0,25.0,27,0.00,,,0.00,44.000000,,2013-07-03 14:34:00,
2013-07-03 07:44:00,81.0,44.0,-100.00,SE,137,2.0,25.0,27,0.00,,,0.00,44.000000,,2013-07-03 14:44:00,
2013-07-03 07:51:00,85.0,43.0,-100.00,NW,312,12.0,23.0,23,0.00,,,0.00,111.000000,,2013-07-03 14:51:00,
2013-07-03 08:36:00,85.0,43.0,-100.00,NW,312,12.0,23.0,23,0.00,,,0.00,111.000000,,2013-07-03 15:36:00,
2013-07-03 08:45:00,85.0,43.0,-100.00,NW,312,12.0,23.0,23,0.00,,,0.00,111.000000,,2013-07-03 15:45:00,
2013-07-03 08:51:00,89.0,43.0,-100.00,West,272,14.0,24.0,20,0.00,,,0.00,237.000000,,2013-07-03 15:51:00,
2013-07-03 09:23:00,89.0,43.0,-100.00,West,272,14.0,24.0,20,0.00,,,0.00,237.000000,,2013-07-03 16:23:00,
2013-07-03 09:44:00,89.0,43.0,-100.00,West,272,14.0,24.0,20,0.00,,,0.00,237.000000,,2013-07-03 16:44:00,
2013-07-03 09:51:00,95.0,43.0,-100.00,NW,320,8.0,21.0,17,0.00,,,0.00,605.000000,,2013-07-03 16:51:00,
2013-07-03 10:14:00,95.0,43.0,-100.00,NW,320,8.0,21.0,17,0.00,,,0.00,605.000000,,2013-07-03 17:14:00,
2013-07-03 10:24:00,95.0,43.0,-100.00,NW,320,8.0,21.0,17,0.00,,,0.00,605.000000,,2013-07-03 17:24:00,
2013-07-03 10:36:00,95.0,43.0,-100.00,NW,320,8.0,21.0,17,0.00,,,0.00,605.000000,,2013-07-03 17:36:00,
2013-07-03 10:46:00,95.0,43.0,-100.00,NW,320,8.0,21.0,17,0.00,,,0.00,605.000000,,2013-07-03 17:46:00,
2013-07-03 10:51:00,96.0,41.0,-100.00,West,267,8.0,17.0,15,0.00,,,0.00,777.000000,,2013-07-03 17:51:00,
2013-07-03 11:23:00,96.0,41.0,-100.00,West,267,8.0,17.0,15,0.00,,,0.00,777.000000,,2013-07-03 18:23:00,
2013-07-03 11:35:00,96.0,41.0,-100.00,West,267,8.0,17.0,15,0.00,,,0.00,777.000000,,2013-07-03 18:35:00,
2013-07-03 11:44:00,96.0,41.0,-100.00,West,267,8.0,17.0,15,0.00,,,0.00,777.000000,,2013-07-03 18:44:00,
2013-07-03 11:51:00,99.0,43.0,-100.00,WSW,257,9.0,20.0,15,0.00,,,0.00,692.000000,,2013-07-03 18:51:00,
2013-07-03 12:34:00,99.0,43.0,-100.00,WSW,257,9.0,20.0,15,0.00,,,0.00,692.000000,,2013-07-03 19:34:00,
2013-07-03 12:44:00,99.0,43.0,-100.00,WSW,257,9.0,20.0,15,0.00,,,0.00,692.000000,,2013-07-03 19:44:00,
2013-07-03 12:51:00,99.0,40.0,-100.00,North,5,10.0,20.0,13,0.00,,,0.00,957.000000,,2013-07-03 19:51:00,
2013-07-03 13:23:00,99.0,40.0,-100.00,North,5,10.0,20.0,13,0.00,,,0.00,957.000000,,2013-07-03 20:23:00,
2013-07-03 13:36:00,99.0,40.0,-100.00,North,5,10.0,20.0,13,0.00,,,0.00,957.000000,,2013-07-03 20:36:00,
2013-07-03 13:43:00,99.0,40.0,-100.00,North,5,10.0,20.0,13,0.00,,,0.00,957.000000,,2013-07-03 20:43:00,
2013-07-03 13:51:00,100.0,36.0,-100.00,West,272,11.0,28.0,11,0.00,,,0.00,1011.000000,,2013-07-03 20:51:00,
2013-07-03 14:12:00,100.0,36.0,-100.00,West,272,11.0,28.0,11,0.00,,,0.00,1011.000000,,2013-07-03 21:12:00,
2013-07-03 14:23:00,100.0,36.0,-100.00,West,272,11.0,28.0,11,0.00,,,0.00,1011.000000,,2013-07-03 21:23:00,
2013-07-03 14:34:00,100.0,36.0,-100.00,West,272,11.0,28.0,11,0.00,,,0.00,1011.000000,,2013-07-03 21:34:00,
2013-07-03 14:43:00,100.0,36.0,-100.00,West,272,11.0,28.0,11,0.00,,,0.00,1011.000000,,2013-07-03 21:43:00,
2013-07-03 14:51:00,102.0,35.0,-100.00,West,267,14.0,20.0,10,0.00,,,0.00,956.000000,,2013-07-03 21:51:00,
2013-07-03 15:12:00,102.0,35.0,-100.00,West,267,14.0,20.0,10,0.00,,,0.00,956.000000,,2013-07-03 22:12:00,
2013-07-03 15:24:00,102.0,35.0,-100.00,West,267,14.0,20.0,10,0.00,,,0.00,956.000000,,2013-07-03 22:24:00,
2013-07-03 15:35:00,102.0,35.0,-100.00,West,267,14.0,20.0,10,0.00,,,0.00,956.000000,,2013-07-03 22:35:00,
2013-07-03 15:44:00,102.0,35.0,-100.00,West,267,14.0,20.0,10,0.00,,,0.00,956.000000,,2013-07-03 22:44:00,
2013-07-03 15:51:00,104.0,37.0,-100.00,WNW,292,9.0,21.0,10,0.00,,,0.00,848.000000,,2013-07-03 22:51:00,
2013-07-03 16:23:00,104.0,37.0,-100.00,WNW,292,9.0,21.0,10,0.00,,,0.00,848.000000,,2013-07-03 23:23:00,
2013-07-03 16:36:00,104.0,37.0,-100.00,WNW,292,9.0,21.0,10,0.00,,,0.00,848.000000,,2013-07-03 23:36:00,
2013-07-03 16:43:00,104.0,37.0,-100.00,WNW,292,9.0,21.0,10,0.00,,,0.00,848.000000,,2013-07-03 23:43:00,
2013-07-03 17:35:00,104.0,34.0,-100.00,WNW,284,11.0,23.0,9,0.00,,,0.00,687.000000,,2013-07-04 00:35:00,
2013-07-03 17:51:00,101.0,34.0,-100.00,West,273,12.0,24.0,10,0.00,,,0.00,489.000000,,2013-07-04 00:51:00,
2013-07-03 18:23:00,101.0,34.0,-100.00,West,273,12.0,24.0,10,0.00,,,0.00,489.000000,,2013-07-04 01:23:00,
2013-07-03 18:34:00,101.0,34.0,-100.00,West,273,12.0,24.0,10,0.00,,,0.00,489.000000,,2013-07-04 01:34:00,
2013-07-03 18:43:00,101.0,34.0,-100.00,West,273,12.0,24.0,10,0.00,,,0.00,489.000000,,2013-07-04 01:43:00,
2013-07-03 19:22:00,99.0,40.0,-100.00,West,262,14.0,25.0,13,0.00,,,0.00,73.000000,,2013-07-04 02:22:00,
2013-07-03 19:45:00,99.0,40.0,-100.00,West,262,14.0,25.0,13,0.00,,,0.00,73.000000,,2013-07-04 02:45:00,
2013-07-03 20:34:00,95.0,43.0,-100.00,WSW,253,15.0,24.0,17,0.00,,,0.00,39.000000,,2013-07-04 03:34:00,
2013-07-03 20:44:00,95.0,43.0,-100.00,WSW,253,15.0,24.0,17,0.00,,,0.00,39.000000,,2013-07-04 03:44:00,
2013-07-03 20:51:00,92.0,44.0,-100.00,WSW,254,16.0,26.0,19,0.00,,,0.00,3.000000,,2013-07-04 03:51:00,
2013-07-03 21:11:00,92.0,44.0,-100.00,WSW,254,16.0,26.0,19,0.00,,,0.00,3.000000,,2013-07-04 04:11:00,
2013-07-03 21:22:00,92.0,44.0,-100.00,WSW,254,16.0,26.0,19,0.00,,,0.00,3.000000,,2013-07-04 04:22:00,
2013-07-03 21:33:00,92.0,44.0,-100.00,WSW,254,16.0,26.0,19,0.00,,,0.00,3.000000,,2013-07-04 04:33:00,
2013-07-03 21:43:00,92.0,44.0,-100.00,WSW,254,16.0,26.0,19,0.00,,,0.00,3.000000,,2013-07-04 04:43:00,
2013-07-03 21:51:00,91.0,42.0,-100.00,West,269,14.0,26.0,18,0.00,,,0.00,0.000000,,2013-07-04 04:51:00,
2013-07-03 22:12:00,91.0,42.0,-100.00,West,269,14.0,26.0,18,0.00,,,0.00,0.000000,,2013-07-04 05:12:00,
2013-07-03 22:22:00,91.0,42.0,-100.00,West,269,14.0,26.0,18,0.00,,,0.00,0.000000,,2013-07-04 05:22:00,
2013-07-03 22:32:00,91.0,42.0,-100.00,West,269,14.0,26.0,18,0.00,,,0.00,0.000000,,2013-07-04 05:32:00,
2013-07-03 22:43:00,91.0,42.0,-100.00,West,269,14.0,26.0,18,0.00,,,0.00,0.000000,,2013-07-04 05:43:00,
2013-07-03 22:51:00,91.0,42.0,-100.00,West,276,16.0,26.0,18,0.00,,,0.00,0.000000,,2013-07-04 05:51:00,
2013-07-03 23:22:00,91.0,42.0,-100.00,West,276,16.0,26.0,18,0.00,,,0.00,0.000000,,2013-07-04 06:22:00,
2013-07-03 23:34:00,91.0,42.0,-100.00,West,276,16.0,26.0,18,0.00,,,0.00,0.000000,,2013-07-04 06:34:00,
2013-07-03 23:43:00,91.0,42.0,-100.00,West,276,16.0,26.0,18,0.00,,,0.00,0.000000,,2013-07-04 06:43:00,
2013-07-03 23:51:00,87.0,46.0,-100.00,WNW,288,12.0,25.0,24,0.00,,,0.00,0.000000,,2013-07-04 06:51:00,